KTXEAGLE7 Weather Reports


Display with metric or nautical units.
time (UTC)temp
F
wind
direction
speed
MPH
gust
MPH
rain 1hr
in
rain 24hr
in
rain mn
in
humidity
%
barometer
mb
20260502123036 52 355 3.0 9.0 0.00 1.98 0.00 96 1020.1
20260502121543 52 24 4.0 9.0 0.00 1.98 0.00 96 1019.8
20260502114529 52 307 2.0 11.0 0.00 1.99 0.00 96 1019.4
20260502113029 52 35 3.0 7.0 0.00 1.99 0.00 96 1019.3
20260502111525 52 50 3.0 11.0 0.00 1.99 0.00 96 1019.2
20260502110023 52 342 3.0 9.0 0.00 2.00 0.00 96 1018.9
20260502104537 52 15 4.0 8.0 0.00 2.00 0.00 96 1018.9
20260502103025 53 342 3.0 8.0 0.00 2.00 0.00 95 1018.8
20260502101516 53 15 3.0 7.0 0.00 2.00 0.00 95 1018.7
20260502091511 55 30 2.0 8.0 0.00 2.08 0.00 94 1017.6
20260502070058 56 37 5.0 12.0 0.00 2.60 0.00 94 1017.0
20260502064606 56 44 4.0 15.0 0.00 2.79 0.00 94 1016.9
20260502063052 56 30 5.0 15.0 0.00 2.79 0.00 94 1016.9
20260502061550 56 40 5.0 14.0 0.00 2.79 0.00 94 1017.0
20260502060050 56 355 6.0 17.0 0.00 2.79 0.00 94 1017.0
20260502054547 56 5 5.0 15.0 0.00 2.80 0.00 94 1017.0
20260502053044 56 355 6.0 17.0 0.00 2.80 0.00 95 1016.9
20260502051559 56 56 5.0 14.0 0.00 2.80 0.00 96 1016.9
20260502050038 56 49 7.0 16.0 0.00 3.04 2.80 96 1016.6
20260502044536 56 22 5.0 14.0 0.00 3.04 2.80 97 1016.3
20260502043040 56 69 7.0 16.0 0.00 3.04 2.80 97 1016.3
20260502041534 56 43 6.0 16.0 0.00 3.04 2.80 97 1016.2
20260502040032 56 86 6.0 16.0 0.00 3.18 2.80 97 1016.2
20260502034542 56 340 5.0 14.0 0.00 3.18 2.80 98 1016.4
20260502033042 56 25 5.0 14.0 0.00 3.18 2.80 98 1016.0
20260502031528 56 23 6.0 20.0 0.00 3.18 2.80 98 1015.9
20260502030026 56 73 6.0 13.0 0.00 3.18 2.80 98 1015.8
20260502024528 56 351 4.0 13.0 0.00 3.18 2.80 98 1015.6
20260502023022 56 48 4.0 16.0 0.00 3.18 2.80 98 1015.4
20260502021517 57 34 6.0 15.0 0.00 3.18 2.80 98 1014.8
20260502020013 57 65 7.0 15.0 0.02 3.18 2.80 98 1014.2
20260502014513 58 15 5.0 13.0 0.03 3.18 2.80 98 1014.0
20260502013009 58 355 4.0 12.0 0.04 3.18 2.80 99 1013.9
20260502011507 58 36 6.0 17.0 0.08 3.18 2.80 99 1013.6
20260502010004 58 30 6.0 20.0 0.06 3.16 2.78 99 1013.3
20260502004504 59 76 5.0 15.0 0.06 3.15 2.77 98 1013.0
20260502003100 59 337 6.0 14.0 0.08 3.14 2.76 99 1013.6
20260502001559 59 5 5.0 16.0 0.08 3.10 2.72 98 1013.5
20260502000055 59 321 4.0 16.0 0.18 3.10 2.72 99 1013.7
20260501234558 60 338 5.0 14.0 0.23 3.09 2.71 99 1012.7
20260501233058 60 13 6.0 14.0 0.20 3.05 2.67 98 1012.9
20260501231558 60 315 3.0 12.0 0.24 3.02 2.64 99 1012.8
20260501230050 60 330 7.0 14.0 0.18 2.92 2.54 98 1013.4
20260501224549 61 36 5.0 17.0 0.12 2.86 2.48 99 1010.9
20260501223048 60 55 8.0 18.0 0.11 2.85 2.47 98 1010.2
20260501221547 61 45 8.0 17.0 0.04 2.78 2.40 99 1010.2
20260501220048 61 13 5.0 16.0 0.00 2.74 2.36 99 1010.4
20260501214557 61 44 7.0 16.0 0.00 2.74 2.36 98 1010.2
20260501213049 61 51 6.0 16.0 0.01 2.74 2.36 99 1010.5
20260501211543 62 331 3.0 12.0 0.19 2.74 2.36 99 1010.8
20260501210042 63 349 4.0 14.0 0.22 2.74 2.36 99 1010.8
20260501204542 63 59 5.0 15.0 0.24 2.74 2.36 99 1010.7
20260501203041 62 42 5.0 10.0 0.25 2.73 2.35 99 1010.6
20260501201546 62 17 4.0 12.0 0.07 2.54 2.17 99 1010.7
20260501200040 62 315 7.0 13.0 0.04 2.52 2.14 99 1009.9
20260501194549 62 35 6.0 14.0 0.02 2.49 2.11 99 1009.4
20260501193039 62 61 6.0 13.0 0.01 2.48 2.10 99 1009.2
20260501191539 62 10 5.0 13.0 0.12 2.48 2.10 99 1010.3
20260501190038 62 67 5.0 12.0 0.13 2.48 2.10 99 1010.2
20260501184538 62 15 5.0 12.0 0.15 2.47 2.09 99 1010.0
20260501183037 62 26 4.0 10.0 0.18 2.47 2.09 99 1010.4
20260501181540 62 24 3.0 10.0 0.21 2.36 1.98 99 1011.0
20260501180040 62 63 7.0 13.0 0.28 2.35 1.97 99 1009.7
20260501174536 62 69 9.0 18.0 0.34 2.31 1.94 99 1008.9
20260501173038 61 81 12.0 20.0 0.34 2.29 1.91 99 1008.7
20260501171547 62 5 6.0 15.0 0.20 2.14 1.76 98 1011.3
20260501170031 62 65 7.0 14.0 0.12 2.04 1.67 99 1011.0
20260501164536 62 5 6.0 12.0 0.07 1.98 1.60 99 1012.1
20260501163031 62 63 5.0 15.0 0.13 1.95 1.57 99 1011.5
20260501161532 62 346 6.0 18.0 0.33 1.94 1.56 99 1011.9
20260501160045 62 30 7.0 15.0 0.34 1.93 1.55 99 1011.7
20260501154535 63 333 6.0 15.0 0.36 1.90 1.52 99 1013.5
20260501153029 63 26 5.0 12.0 0.28 1.82 1.44 99 1012.9
20260501151534 62 360 4.0 13.0 0.07 1.61 1.23 98 1012.9
20260501150029 62 69 6.0 16.0 0.05 1.59 1.21 99 1011.4
20260501144527 62 102 8.0 14.0 0.02 1.54 1.15 99 1011.5